GEFSMW_con_cape1000_276.txt.gz
Probability
13 16 16 29 35 68 81 84 81 81 81 81 84 84 84 77 77 77 71 71 68 68 77 77 77 81 77 77 71 71 65 58 58 52 39 52 48 48 48 45 35 35 32
13 23 26 29 39 68 77 84 81 81 81 81 84 84 84 77 74 77 71 61 65 71 68 77 77 77 84 77 77 71 68 61 48 45 48 39 32 32 19 42 35 35 32
16 19 23 39 39 61 77 74 81 81 81 81 81 81 81 77 77 81 77 74 65 61 65 65 77 81 77 77 74 71 61 55 48 55 52 42 26 29 32 29 35 32 32
16 16 26 42 45 55 71 84 84 87 81 77 81 77 81 81 81 81 81 77 65 61 61 61 61 74 77 77 77 71 68 58 55 52 52 48 48 32 32 45 42 32 29
6 16 19 48 48 48 58 84 87 87 81 81 81 84 81 84 81 81 81 81 77 74 65 65 65 74 77 77 77 71 68 74 65 58 52 52 52 39 32 26 29 35 35
13 16 29 45 45 45 58 77 87 87 84 81 81 81 81 81 84 84 81 81 74 77 71 68 74 74 74 77 77 77 68 65 68 61 55 55 45 42 45 45 35 32 26
23 23 32 39 48 45 48 74 87 87 84 81 81 81 81 77 81 81 84 77 71 74 74 68 71 74 74 74 81 74 68 65 65 61 61 61 52 48 42 48 48 32 29
26 29 35 45 48 48 61 71 81 84 81 81 77 77 74 77 77 77 77 68 71 71 71 74 71 74 74 68 74 71 71 68 61 61 61 58 48 52 42 42 42 39 32
26 32 35 35 39 52 65 74 81 84 81 77 77 77 77 77 71 71 71 71 74 61 68 71 71 74 68 68 65 65 65 65 58 58 55 58 52 45 42 39 42 32 23
26 32 29 29 42 42 68 74 77 81 81 77 77 74 81 77 71 68 68 68 74 71 68 68 71 68 61 61 61 65 61 61 65 61 58 61 55 48 45 45 45 42 35
23 29 35 35 35 39 45 68 81 77 81 81 81 77 77 81 81 74 74 71 71 71 68 65 68 65 61 68 65 58 55 55 58 52 48 52 52 48 42 39 35 39 42
19 26 35 39 39 39 42 61 68 77 77 77 81 87 84 84 84 71 74 77 77 71 65 65 61 58 65 61 58 58 61 55 52 48 48 45 45 45 48 52 35 39 39
26 29 39 45 48 61 61 61 61 71 65 74 77 81 84 77 81 81 81 74 68 71 68 71 58 52 48 45 52 48 52 55 48 52 48 45 48 48 45 45 35 32 26
42 32 45 48 68 71 71 68 58 61 61 61 71 74 74 77 81 74 74 68 68 65 65 61 61 52 52 48 48 48 45 45 48 48 45 48 42 39 42 42 39 39 29
42 48 58 71 77 74 71 74 65 61 58 68 65 61 65 65 74 68 65 71 68 61 61 65 61 58 55 48 48 55 45 58 48 42 42 35 32 29 29 29 29 26 32
48 55 71 71 71 81 71 71 68 68 68 68 61 61 65 58 55 61 65 65 65 65 68 61 58 55 35 26 26 39 52 55 55 48 45 39 29 23 16 13 13 16 16
55 65 65 71 71 71 71 71 68 68 68 61 61 65 61 55 52 52 55 61 61 61 65 58 58 52 29 19 6 16 35 42 45 48 42 32 19 26 29 16 3 3 0
61 61 61 61 65 68 68 65 58 68 68 65 65 61 55 52 52 52 55 58 58 61 55 58 55 55 29 19 6 6 26 35 35 39 39 39 35 29 32 29 19 23 16
65 65 55 58 61 58 68 68 65 65 65 65 65 58 55 52 52 48 55 58 58 58 58 55 58 52 35 16 6 0 19 29 32 35 35 35 39 26 16 26 29 26 19
61 65 58 61 61 61 61 71 68 65 65 61 61 58 52 52 52 52 55 55 61 65 61 58 52 48 35 19 6 0 23 26 32 35 29 23 26 16 10 23 26 26 23
58 58 61 65 71 68 68 74 68 61 65 61 61 58 52 52 52 52 52 55 58 61 58 58 52 55 39 29 6 0 23 26 29 26 29 26 16 6 3 10 23 26 23
55 58 68 71 74 74 74 74 71 65 65 61 65 65 58 52 48 55 55 61 61 61 58 52 52 45 42 32 13 0 0 16 29 26 26 26 3 3 0 0 6 6 0
58 55 65 71 74 71 71 71 68 68 68 74 65 65 65 55 55 55 55 58 61 52 45 42 39 39 39 26 23 0 0 0 6 26 13 3 3 0 0 0 0 0 3
48 52 52 65 71 71 71 71 68 71 71 71 68 68 61 58 58 55 52 45 42 48 45 42 35 42 35 29 26 19 0 0 0 3 10 3 0 0 6 3 0 0 6
42 42 52 61 65 68 68 71 65 65 68 65 68 55 58 55 58 52 48 45 42 35 39 48 39 42 32 23 16 23 23 16 13 13 16 16 16 6 6 10 13 13 13
42 42 48 52 55 55 68 65 68 65 65 61 61 48 52 42 39 32 32 16 16 13 16 19 16 16 6 6 0 6 6 10 6 13 19 19 16 13 13 13 16 16 19

GEFSMW_con_cape1000_282.txt.gz
Probability
10 13 13 13 13 6 19 26 29 32 26 23 29 26 13 19 16 13 19 19 19 19 6 13 10 6 3 3 3 3 0 3 3 3 3 0 0 0 0 0 0 3 6
6 6 6 10 6 13 19 16 29 35 32 26 26 32 29 26 19 19 16 16 16 16 23 10 10 3 3 0 0 3 0 3 3 3 0 0 0 0 0 0 0 0 6
6 6 10 10 6 6 23 29 35 32 39 32 35 32 23 26 26 23 16 19 19 13 10 10 6 6 3 3 0 0 3 3 3 3 0 0 0 0 0 0 0 0 3
3 6 6 6 10 16 32 39 35 35 42 35 35 29 26 23 26 19 23 23 19 19 13 13 10 16 6 0 0 6 3 3 3 0 3 0 0 0 0 0 0 0 0
6 6 6 6 6 23 29 35 39 39 29 35 42 26 29 23 32 16 26 19 13 19 19 16 13 13 3 3 3 3 3 3 3 6 6 6 3 0 3 0 0 3 3
3 6 6 3 6 23 29 39 39 39 32 35 35 32 35 29 32 29 23 23 13 10 16 16 13 10 10 10 6 3 6 10 10 10 6 6 6 3 3 3 3 3 3
3 3 3 6 10 19 32 45 45 39 32 35 26 23 23 26 23 19 23 19 19 16 16 19 16 3 10 13 13 13 10 10 13 13 10 6 6 6 3 3 3 3 3
3 6 6 6 13 23 29 45 48 42 39 39 29 26 35 26 26 26 23 23 19 23 19 23 19 13 19 23 19 16 23 23 19 19 13 13 16 10 6 3 3 3 3
10 6 10 10 16 19 23 39 48 48 52 48 35 32 32 32 29 29 29 26 19 23 19 19 23 16 16 16 23 19 16 23 23 19 19 13 13 13 10 6 6 6 3
3 6 10 10 13 19 16 32 48 52 52 45 48 35 32 32 39 19 23 23 26 26 23 19 16 13 10 13 16 19 19 19 19 19 16 16 13 13 10 10 6 6 6
3 3 6 10 10 13 19 32 48 48 55 52 48 35 39 42 35 35 26 23 16 16 16 13 10 10 13 13 16 19 19 19 19 19 16 16 16 10 10 10 6 10 6
3 3 6 10 16 13 19 29 45 52 52 45 45 39 35 39 32 29 26 23 19 23 23 19 16 19 26 19 19 23 23 16 16 16 16 16 16 10 10 10 10 10 10
0 6 10 16 16 13 19 32 45 48 48 48 45 35 32 39 35 35 23 26 29 26 23 16 23 23 23 26 19 23 19 19 16 16 16 19 16 13 10 10 10 13 13
3 6 19 19 23 16 23 35 48 48 45 45 42 39 35 26 26 29 23 29 26 29 23 23 26 26 26 26 26 19 19 19 19 16 16 16 16 16 16 13 13 13 13
13 13 19 16 23 19 23 26 32 45 42 45 39 35 32 29 26 26 26 23 29 23 29 26 23 29 29 26 16 19 16 13 16 16 13 13 16 19 19 16 16 13 13
16 19 16 16 23 23 26 26 29 39 45 39 39 32 32 32 29 26 26 29 29 26 26 26 26 26 26 23 13 19 23 19 10 13 16 16 16 16 13 13 10 10 10
26 26 26 32 29 29 26 29 29 35 42 35 39 39 35 29 32 29 29 26 26 26 26 23 23 23 23 13 6 6 16 16 16 13 13 13 13 13 13 10 6 6 6
19 26 29 32 39 32 29 32 29 39 42 39 35 35 32 29 32 29 29 26 32 29 23 23 23 19 23 10 6 3 6 16 16 16 13 13 13 13 13 13 10 6 6
23 23 32 39 42 42 35 35 35 42 45 42 39 35 29 23 29 29 29 29 26 32 29 23 19 23 19 13 3 3 6 13 10 13 13 13 10 10 10 10 10 10 6
29 26 32 42 39 42 35 39 35 35 45 39 35 35 32 26 26 23 29 26 23 26 26 23 23 23 23 13 6 3 10 10 13 10 13 10 6 10 6 6 10 10 10
32 32 39 42 42 42 35 32 35 39 35 35 32 39 35 35 32 23 23 26 23 26 26 23 19 19 19 16 6 3 6 13 6 10 16 16 13 0 0 0 3 10 10
35 35 35 48 42 42 39 42 39 32 29 26 35 35 35 35 29 29 29 26 29 32 29 23 23 19 16 16 10 3 3 6 10 19 19 13 3 0 0 0 3 3 3
32 35 32 39 35 35 26 29 35 35 35 29 32 32 35 29 32 29 23 23 23 26 23 26 26 23 19 19 16 0 0 0 0 10 10 3 0 0 0 0 0 0 0
29 26 29 35 32 32 23 29 32 32 32 32 32 29 32 32 29 29 26 23 29 29 23 23 23 19 19 19 16 6 0 0 0 0 0 0 0 0 0 0 0 0 0
26 23 26 29 32 35 32 29 32 32 26 29 29 39 42 32 32 23 19 23 26 26 23 23 23 16 16 10 6 6 3 0 0 0 0 0 0 0 3 0 0 0 0
19 23 26 26 29 32 32 29 29 26 29 26 29 32 29 29 29 16 13 10 13 6 6 10 13 13 10 6 3 3 3 0 0 0 0 0 0 0 0 0 3 3 6

GEFSMW_con_cape1000_288.txt.gz
Probability
6 3 3 3 0 0 0 0 3 0 0 6 6 10 6 6 10 10 13 13 13 16 10 6 3 0 0 0 0 3 0 0 3 3 0 0 0 0 0 0 3 3 6
3 3 3 3 0 0 3 3 3 0 0 0 3 6 3 10 6 3 10 13 13 10 10 6 6 3 0 0 0 0 0 0 3 3 0 0 0 0 0 0 0 3 3
0 0 0 0 0 0 3 3 3 3 0 0 3 6 6 10 6 6 10 13 6 6 3 3 6 6 6 0 0 0 0 0 3 3 0 0 0 0 0 0 0 3 3
3 3 0 3 3 0 3 3 3 3 3 0 6 13 16 16 13 6 13 6 3 6 6 10 6 6 6 3 0 0 0 0 0 3 0 0 0 0 3 3 3 3 3
3 3 3 3 3 3 3 3 3 3 3 6 10 10 13 13 16 6 13 10 3 3 10 10 10 6 3 3 3 6 0 0 3 6 6 6 3 3 3 3 3 3 3
3 3 3 3 3 3 3 3 3 3 3 6 6 13 13 13 13 6 6 10 10 3 6 13 6 6 6 3 3 3 3 6 6 10 6 6 6 6 3 3 3 3 3
0 6 3 3 3 3 6 6 0 3 6 13 13 16 16 13 13 10 6 10 10 13 6 13 10 6 6 6 6 3 6 3 10 13 10 10 10 10 3 3 3 3 3
3 3 3 3 3 3 6 10 6 10 10 13 16 13 13 13 13 6 10 10 10 13 10 6 6 3 10 10 10 10 6 6 6 13 13 10 10 10 3 6 6 6 3
3 3 3 3 3 3 3 3 0 10 10 16 16 16 13 13 19 6 10 13 13 13 10 10 10 10 10 13 10 10 10 10 10 10 10 13 13 13 6 6 6 6 10
3 3 3 3 3 3 3 0 3 10 10 13 10 16 13 16 16 6 6 10 13 13 10 10 10 10 10 10 13 13 16 10 13 13 13 13 16 19 16 13 6 6 6
3 3 3 3 6 3 3 6 10 10 6 16 13 16 16 13 16 13 6 13 13 13 13 13 10 10 6 10 13 13 16 13 13 13 16 16 16 16 13 13 6 6 6
3 3 3 3 6 3 3 10 13 10 13 19 16 16 13 13 10 10 13 13 10 13 13 16 10 3 6 10 10 10 13 13 10 10 13 13 13 13 10 13 13 13 6
0 0 0 0 6 3 3 3 16 13 19 19 23 16 13 10 10 10 10 10 13 13 10 13 10 10 10 6 6 10 13 10 10 13 13 13 13 13 13 6 6 6 10
3 3 0 0 0 10 10 13 16 16 16 23 23 23 23 13 6 6 6 10 10 10 10 13 10 16 16 13 10 6 10 10 10 13 10 10 10 10 10 10 6 6 10
6 6 3 6 6 6 13 13 16 19 23 19 23 26 19 16 10 10 10 10 6 10 13 13 13 13 16 13 13 10 13 10 10 10 10 10 10 10 10 10 10 6 10
0 3 6 6 6 6 16 23 19 26 29 23 23 19 23 10 13 16 16 16 13 16 16 13 13 13 16 10 6 6 13 13 13 13 10 13 6 6 3 3 6 6 13
0 3 6 6 6 10 13 16 19 26 26 26 23 19 19 23 16 19 13 16 16 19 23 16 13 13 6 6 6 3 10 13 16 10 10 6 10 10 16 10 3 3 0
6 6 13 16 13 10 13 19 23 19 23 23 16 16 16 19 19 19 19 16 19 19 19 23 16 13 6 3 3 3 6 6 13 10 10 10 10 10 13 13 13 10 10
13 13 19 19 19 16 23 23 19 19 26 29 23 19 13 16 16 16 19 23 16 16 16 19 16 13 13 3 0 0 3 6 6 13 13 10 13 10 3 3 13 13 10
13 19 19 19 19 19 23 23 23 29 29 29 29 23 19 23 13 13 13 16 16 16 16 16 16 13 16 6 3 0 3 3 6 10 10 3 3 3 3 3 10 13 10
6 13 10 13 13 16 23 23 26 32 35 35 26 23 19 16 16 13 13 13 13 13 16 16 10 10 16 10 3 0 3 6 6 6 13 10 0 0 0 0 3 6 10
13 10 16 16 16 16 26 26 26 23 29 29 26 16 16 16 16 13 13 13 16 16 16 10 10 10 16 10 6 3 0 3 6 6 13 13 0 0 0 0 0 0 0
19 19 19 16 16 16 23 26 19 19 26 26 23 23 19 16 13 19 13 13 13 16 13 13 13 16 10 10 3 0 0 0 3 10 6 3 0 0 0 0 0 0 0
16 6 16 19 16 16 16 19 19 19 26 19 19 19 19 6 10 13 13 13 13 13 13 13 13 16 16 16 6 6 0 0 0 3 3 0 0 0 0 0 0 0 0
13 6 10 13 13 13 13 16 16 19 19 16 19 19 19 16 13 6 6 6 6 16 10 10 13 13 10 10 10 10 6 6 3 3 0 0 0 0 0 0 0 0 0
10 6 6 10 13 13 6 16 16 16 19 19 19 19 16 16 16 19 10 3 3 3 3 3 6 6 6 3 0 0 0 0 0 0 3 3 3 3 3 3 3 0 0

GEFSMW_con_cape1000_294.txt.gz
Probability
16 16 16 16 23 35 52 52 55 58 61 55 42 52 48 48 48 45 48 48 45 48 48 39 55 52 45 48 42 39 35 32 35 32 29 26 19 26 26 19 16 16 13
19 19 23 19 19 39 48 58 61 58 58 58 61 68 55 42 48 48 48 52 52 52 29 48 42 55 52 52 48 48 39 35 32 32 35 19 29 35 23 23 26 19 26
23 19 23 19 19 35 52 45 61 65 61 61 45 52 65 61 48 61 68 55 52 48 52 55 52 55 42 39 48 42 42 39 42 42 35 26 23 29 29 35 32 35 26
19 19 23 29 23 32 45 58 61 68 68 65 58 42 61 52 48 58 58 61 55 55 55 55 52 42 42 52 35 39 39 42 39 32 35 29 29 29 32 26 32 35 35
16 23 16 32 26 26 39 55 58 68 68 68 65 65 55 58 58 58 65 61 65 65 58 58 55 52 45 48 45 48 45 35 42 35 29 32 42 32 39 23 32 29 32
19 23 23 32 29 26 45 52 58 61 61 65 65 65 58 61 58 61 52 55 58 65 65 65 61 52 52 55 58 55 52 52 52 48 45 52 35 39 29 32 32 26 26
19 29 29 32 35 32 35 42 61 65 61 61 61 68 68 65 65 61 61 58 52 55 65 61 61 55 55 55 61 58 58 55 58 58 55 45 35 35 35 32 26 23 19
19 29 29 35 39 42 45 52 61 61 65 65 65 68 68 68 68 68 58 55 42 45 65 65 55 52 52 45 58 58 55 58 58 48 55 52 32 35 32 26 23 26 23
13 29 29 32 39 42 45 48 65 68 71 65 68 71 68 71 71 68 58 58 58 55 48 52 58 52 48 52 55 58 58 58 55 52 45 42 35 42 39 29 32 26 16
10 16 23 26 26 29 42 48 61 68 68 68 65 61 65 68 68 61 58 58 65 55 52 52 45 39 39 42 48 48 55 48 48 52 48 48 35 35 29 29 29 32 29
19 29 32 29 23 26 32 48 58 65 65 68 68 68 65 65 68 65 65 58 58 58 48 45 42 42 42 42 48 39 42 42 42 35 39 45 39 32 29 29 29 26 23
16 29 32 35 39 32 35 48 52 55 58 65 68 68 65 65 65 65 68 58 58 58 55 42 42 42 32 42 42 39 39 39 35 32 32 29 29 39 29 26 23 23 23
35 32 45 45 42 42 52 52 55 58 58 65 65 68 68 65 65 61 61 61 61 55 52 48 42 42 32 42 45 32 39 35 35 35 35 32 29 32 19 35 29 26 23
52 42 42 45 45 52 65 61 58 55 65 68 68 68 65 65 68 58 58 58 58 52 48 45 45 42 39 39 39 39 39 39 39 39 39 35 32 29 29 26 26 23 26
48 48 52 48 52 55 58 58 52 55 61 65 65 61 61 65 61 58 58 58 55 45 52 52 45 45 42 29 35 39 35 39 42 42 39 32 26 26 26 23 29 26 26
29 45 48 52 52 52 55 61 61 58 55 55 61 61 61 58 55 55 55 52 45 45 48 52 48 42 26 23 16 23 35 39 35 35 32 32 32 16 3 6 10 19 23
29 48 52 55 55 55 58 61 61 61 58 55 55 55 48 52 48 45 48 45 45 45 45 45 39 35 29 13 3 0 26 35 39 39 35 26 23 26 29 10 0 0 0
26 39 45 55 55 55 55 61 61 65 61 58 52 48 48 45 42 42 42 48 48 48 52 52 45 52 35 16 0 0 16 23 35 39 35 32 32 26 35 35 26 26 26
32 42 45 48 58 52 55 58 58 61 61 58 55 55 48 42 42 42 39 42 48 45 48 45 48 55 42 16 0 0 32 32 29 26 32 32 32 29 6 32 35 35 35
35 42 42 45 55 55 58 58 55 61 61 61 55 58 58 52 45 45 52 42 45 42 45 42 42 55 48 16 6 0 26 29 26 32 29 19 19 19 3 26 29 32 32
42 42 35 39 52 52 52 61 61 58 58 55 58 58 58 52 52 48 45 52 42 42 42 42 48 48 48 26 6 3 32 26 23 23 26 26 6 0 0 0 26 26 26
39 42 39 39 42 48 48 58 58 61 58 55 55 55 58 48 35 48 45 48 45 48 45 48 45 42 39 19 10 3 0 10 26 26 19 23 3 0 0 0 6 3 3
35 39 42 45 39 45 55 55 55 55 58 61 61 65 58 55 42 42 39 42 45 35 29 32 39 35 35 32 6 0 0 0 10 23 13 3 0 0 0 0 0 0 6
29 35 35 39 39 42 42 48 52 52 58 55 58 61 61 55 52 52 42 32 29 26 29 35 29 29 32 32 29 10 0 0 3 3 10 0 0 0 0 0 0 0 10
26 26 35 29 32 39 35 39 45 55 55 55 52 58 48 52 48 45 45 35 39 23 35 29 26 23 23 16 10 16 16 13 10 10 16 16 16 13 13 16 16 16 13
23 23 23 26 26 29 32 35 39 42 39 45 45 45 35 39 39 39 35 10 13 3 3 6 3 10 3 0 0 0 0 0 0 3 13 16 19 16 16 16 19 16 16